Weather History for Laconia, NH

Change the Weather History Date:

Wednesday, October 26, 2011

  Actual Average Record
Temperature  
Mean Temperature 42 °F -  
Max Temperature 46 °F 58 °F 73 °F (1989)
Min Temperature 37 °F 36 °F 24 °F (1997)
Degree Days  
Heating Degree Days 24    
Moisture  
Dew Point 34 °F    
Average Humidity 73    
Maximum Humidity 87    
Minimum Humidity 61    
Precipitation  
Precipitation 0.00 in - - ()
Sea Level Pressure  
Sea Level Pressure 29.86 in    
Wind  
Wind Speed 5 mph (SW)    
Max Wind Speed 12 mph    
Max Gust Speed -    
Visibility 10 miles    
Events      
Averages and records for this station are not official NWS values.
T = Trace of Precipitation, MM = Missing Value Source: NWS Daily Summary

Daily Weather History Graph

Daily Weather History Graph

Search for Another Location

Airport:

Trip Planner

Search our weather history database for the weather conditions in past years. The results will help you decide how hot, cold, wet, or windy it might be!

Date:

Astronomy

Oct. 26, 2011 Rise Set
Actual Time 7:13 AM EDT 5:45 PM EDT
Civil Twilight 6:43 AM EDT 6:14 PM EDT
Nautical Twilight 6:10 AM EDT 6:48 PM EDT
Astronomical Twilight 5:36 AM EDT 7:21 PM EDT
Moon 6:58 AM EDT (10/26) 5:23 PM EDT (10/26)
Length of Visible Light 11h 31m
Length of Day
10h 32m
Waning Crescent, 0% of the Moon is Illuminated
Oct 26
Waning Crescent
Oct 26
New
Nov 2
First Quarter
Nov 10
Full
Nov 18
Last Quarter

Hourly Weather History & Observations

Time (EDT) Temp. Windchill Dew Point Humidity Pressure Visibility Wind Dir Wind Speed Gust Speed Precip Events Conditions
12:35 AM 41.0 °F 38.0 °F 30.2 °F 65% 29.93 in 10.0 mi SW 4.6 mph - N/A   Clear
12:55 AM 39.2 °F 37.0 °F 32.0 °F 75% 29.94 in 10.0 mi West 3.5 mph - N/A   Clear
1:15 AM 39.2 °F 37.0 °F 30.2 °F 70% 29.94 in 10.0 mi WSW 3.5 mph - N/A   Clear
1:35 AM 42.8 °F 38.6 °F 30.2 °F 61% 29.94 in 10.0 mi West 6.9 mph - N/A   Clear
1:55 AM 42.8 °F 41.1 °F 30.2 °F 61% 29.94 in 10.0 mi WSW 3.5 mph - N/A   Clear
2:15 AM 42.8 °F - 30.2 °F 61% 29.95 in 10.0 mi Calm Calm - N/A   Clear
2:55 AM 42.8 °F 36.6 °F 32.0 °F 66% 29.94 in 10.0 mi WSW 11.5 mph - N/A   Clear
3:15 AM 42.8 °F 38.0 °F 32.0 °F 66% 29.94 in 10.0 mi WSW 8.1 mph - N/A   Clear
3:35 AM 41.0 °F 36.4 °F 30.2 °F 65% 29.94 in 10.0 mi SW 6.9 mph - N/A   Clear
3:55 AM 39.2 °F 34.2 °F 32.0 °F 75% 29.93 in 10.0 mi SW 6.9 mph - N/A   Clear
4:15 AM 39.2 °F 33.6 °F 32.0 °F 75% 29.92 in 10.0 mi WSW 8.1 mph - N/A   Clear
4:35 AM 39.2 °F 34.2 °F 32.0 °F 75% 29.92 in 10.0 mi WSW 6.9 mph - N/A   Clear
4:55 AM 39.2 °F 37.0 °F 32.0 °F 75% 29.92 in 10.0 mi West 3.5 mph - N/A   Clear
5:35 AM 39.2 °F 35.9 °F 32.0 °F 75% 29.91 in 10.0 mi WSW 4.6 mph - N/A   Clear
5:55 AM 39.2 °F 35.9 °F 33.8 °F 81% 29.92 in 10.0 mi WSW 4.6 mph - N/A   Clear
6:15 AM 39.2 °F 37.0 °F 32.0 °F 75% 29.91 in 10.0 mi SSW 3.5 mph - N/A   Clear
6:35 AM 39.2 °F 35.0 °F 32.0 °F 75% 29.92 in 10.0 mi WSW 5.8 mph - N/A   Clear
6:55 AM 37.4 °F 33.8 °F 32.0 °F 81% 29.92 in 10.0 mi SW 4.6 mph - N/A   Clear
7:15 AM 39.2 °F 35.9 °F 33.8 °F 81% 29.92 in 10.0 mi SW 4.6 mph - N/A   Clear
7:55 AM 39.2 °F 35.9 °F 33.8 °F 81% 29.94 in 10.0 mi SW 4.6 mph - N/A   Clear
8:15 AM 37.4 °F - 32.0 °F 81% 29.93 in 10.0 mi Calm Calm - N/A   Scattered Clouds
8:35 AM 39.2 °F - 33.8 °F 81% 29.93 in 10.0 mi Calm Calm - N/A   Mostly Cloudy
8:55 AM 39.2 °F - 33.8 °F 81% 29.92 in 10.0 mi Calm Calm - N/A   Mostly Cloudy
9:15 AM 42.8 °F - 33.8 °F 70% 29.92 in 10.0 mi Calm Calm - N/A   Overcast
9:35 AM 42.8 °F - 33.8 °F 70% 29.91 in 10.0 mi Calm Calm - N/A   Overcast
10:15 AM 42.8 °F - 33.8 °F 70% 29.91 in 10.0 mi Calm Calm - N/A   Overcast
10:35 AM 44.6 °F 43.1 °F 32.0 °F 61% 29.90 in 10.0 mi West 3.5 mph - N/A   Overcast
10:55 AM 44.6 °F 40.7 °F 33.8 °F 66% 29.90 in 10.0 mi WSW 6.9 mph - N/A   Overcast
11:15 AM 44.6 °F 41.4 °F 33.8 °F 66% 29.90 in 10.0 mi WSW 5.8 mph - N/A   Overcast
11:55 AM 44.6 °F 41.4 °F 33.8 °F 66% 29.88 in 10.0 mi WSW 5.8 mph - N/A   Overcast
12:35 PM 46.4 °F 42.4 °F 33.8 °F 62% 29.85 in 10.0 mi WSW 8.1 mph - N/A   Overcast
12:55 PM 46.4 °F 42.9 °F 33.8 °F 62% 29.83 in 10.0 mi SSW 6.9 mph - N/A   Overcast
1:15 PM 46.4 °F 42.4 °F 33.8 °F 62% 29.83 in 10.0 mi SW 8.1 mph - N/A   Overcast
1:35 PM 44.6 °F 42.2 °F 33.8 °F 66% 29.82 in 10.0 mi SSW 4.6 mph - N/A   Overcast
1:55 PM 44.6 °F 40.7 °F 33.8 °F 66% 29.83 in 10.0 mi SW 6.9 mph - N/A   Overcast
2:15 PM 46.4 °F 42.4 °F 33.8 °F 62% 29.81 in 10.0 mi South 8.1 mph - N/A   Overcast
2:35 PM 44.6 °F 42.2 °F 35.6 °F 71% 29.81 in 10.0 mi SSW 4.6 mph - N/A   Overcast
3:15 PM 44.6 °F 40.7 °F 37.4 °F 76% 29.80 in 10.0 mi SSW 6.9 mph - N/A   Overcast
3:35 PM 44.6 °F 40.2 °F 35.6 °F 71% 29.79 in 10.0 mi SSW 8.1 mph - N/A   Overcast
3:55 PM 44.6 °F 41.4 °F 35.6 °F 71% 29.80 in 10.0 mi SW 5.8 mph - N/A   Overcast
4:15 PM 44.6 °F 40.7 °F 37.4 °F 76% 29.80 in 10.0 mi SW 6.9 mph - N/A   Overcast
4:35 PM 44.6 °F 41.4 °F 37.4 °F 76% 29.79 in 10.0 mi SSW 5.8 mph - N/A   Overcast
4:55 PM 44.6 °F 43.1 °F 37.4 °F 76% 29.77 in 10.0 mi South 3.5 mph - N/A   Overcast
5:35 PM 44.6 °F 42.2 °F 37.4 °F 76% 29.77 in 10.0 mi SSW 4.6 mph - N/A   Overcast
5:55 PM 44.6 °F 41.4 °F 37.4 °F 76% 29.78 in 10.0 mi SSW 5.8 mph - N/A   Overcast
6:15 PM 44.6 °F 42.2 °F 37.4 °F 76% 29.78 in 10.0 mi SSW 4.6 mph - N/A   Overcast
6:35 PM 44.6 °F - 37.4 °F 76% 29.78 in 10.0 mi Calm Calm - N/A   Overcast
6:55 PM 42.8 °F 40.1 °F 37.4 °F 81% 29.77 in 10.0 mi SSW 4.6 mph - N/A   Mostly Cloudy
7:15 PM 44.6 °F - 37.4 °F 76% 29.77 in 10.0 mi Calm Calm - N/A   Overcast
7:35 PM 42.8 °F 40.1 °F 39.2 °F 87% 29.77 in 10.0 mi SW 4.6 mph - N/A   Overcast
7:55 PM 44.6 °F - 37.4 °F 76% 29.78 in 10.0 mi Calm Calm - N/A   Overcast
8:35 PM 42.8 °F 41.1 °F 37.4 °F 81% 29.78 in 10.0 mi SSW 3.5 mph - N/A   Overcast
8:55 PM 42.8 °F - 39.2 °F 87% 29.78 in 10.0 mi Calm Calm - N/A   Overcast
9:15 PM 42.8 °F 40.1 °F 37.4 °F 81% 29.77 in 10.0 mi SSW 4.6 mph - N/A   Overcast
9:35 PM 42.8 °F - 39.2 °F 87% 29.78 in 10.0 mi Calm Calm - N/A   Overcast
9:55 PM 44.6 °F - 39.2 °F 81% 29.78 in 10.0 mi Calm Calm - N/A   Overcast
10:35 PM 42.8 °F - 37.4 °F 81% 29.76 in 10.0 mi Calm Calm - N/A   Overcast
10:55 PM 42.8 °F - 39.2 °F 87% 29.76 in 10.0 mi Calm Calm - N/A   Overcast
11:15 PM 42.8 °F - 37.4 °F 81% 29.75 in 10.0 mi Calm Calm - N/A   Overcast
11:35 PM 42.8 °F - 37.4 °F 81% 29.75 in 10.0 mi Calm Calm - N/A   Overcast
11:55 PM 42.8 °F - 39.2 °F 87% 29.75 in 10.0 mi Calm Calm - N/A   Overcast